CW3540 Weather Reports


Display with metric or nautical units.
time (UTC)temp
F
wind
direction
speed
MPH
gust
MPH
rain 1hr
in
rain 24hr
in
rain mn
in
humidity
%
barometer
mb
20210919040012 50 23 0.0 0.0 0.00 0.00 0.00 90 1020.4
20210919035011 50 36 0.0 0.0 0.00 0.00 0.00 90 1020.5
20210919033013 50 25 0.0 0.0 0.00 0.00 0.00 90 1020.5
20210919032013 50 25 0.0 0.0 0.00 0.00 0.00 90 1020.5
20210919031012 50 30 0.0 0.0 0.00 0.00 0.00 90 1020.5
20210919030013 50 31 0.0 0.0 0.00 0.00 0.00 90 1020.5
20210919025012 50 27 0.0 0.0 0.00 0.00 0.00 90 1020.5
20210919023013 50 29 0.0 0.0 0.00 0.00 0.00 90 1020.7
20210919022012 50 29 0.0 0.0 0.00 0.00 0.00 90 1020.7
20210919021011 50 29 0.0 0.0 0.00 0.00 0.00 90 1020.8
20210919020012 50 29 0.0 0.0 0.00 0.00 0.00 90 1020.8
20210919015012 50 30 0.0 0.0 0.00 0.00 0.00 90 1020.8
20210919014012 50 30 0.0 0.0 0.00 0.00 0.00 90 1020.8
20210919013013 50 34 0.0 0.0 0.00 0.00 0.00 90 1020.8
20210919010013 50 23 0.0 0.0 0.00 0.00 0.00 90 1020.9
20210919003013 51 29 0.0 0.0 0.00 0.00 0.00 90 1020.9
20210919001012 51 27 0.0 0.0 0.00 0.00 0.00 90 1021.0
20210919000012 51 20 0.0 0.0 0.00 0.00 0.00 90 1021.1
20210918234011 51 60 0.0 0.0 0.00 0.00 0.00 90 1021.1
20210918233013 51 31 0.0 0.0 0.00 0.00 0.00 90 1021.2
20210918232012 51 54 0.0 0.0 0.00 0.00 0.00 90 1021.2
20210918231012 51 32 0.0 0.0 0.00 0.00 0.00 90 1021.3
20210918225012 52 39 0.0 0.0 0.00 0.00 0.00 90 1021.2
20210918224011 52 50 0.0 0.0 0.00 0.00 0.00 90 1021.1
20210918222013 52 0 0.0 0.0 0.00 0.00 0.00 90 1021.3
20210918221009 52 19 0.0 0.0 0.00 0.00 0.00 90 1021.3
20210918214012 52 32 0.0 0.0 0.00 0.00 0.00 90 1021.3
20210918212012 52 52 0.0 0.0 0.00 0.00 0.00 90 1021.3
20210918211012 52 63 0.0 0.0 0.00 0.00 0.00 90 1021.4
20210918210012 52 33 0.0 0.0 0.00 0.00 0.00 90 1021.4
20210918204012 52 59 0.0 0.0 0.00 0.00 0.00 90 1021.3
20210918202012 53 25 0.0 0.0 0.00 0.00 0.00 90 1021.4
20210918201012 53 30 0.0 0.0 0.00 0.00 0.00 90 1021.4
20210918200013 53 37 0.0 0.0 0.00 0.00 0.00 90 1021.4
20210918195013 53 39 0.0 0.0 0.00 0.00 0.00 90 1021.4
20210918194012 53 37 0.0 0.0 0.00 0.00 0.00 90 1021.4
20210918191012 54 57 0.0 0.0 0.00 0.00 0.00 90 1021.3
20210918184012 54 19 0.0 0.0 0.00 0.00 0.00 90 1021.0
20210918183013 54 29 0.0 0.0 0.00 0.00 0.00 90 1021.0
20210918181012 54 56 0.0 0.0 0.00 0.00 0.00 90 1020.8
20210918180012 54 19 0.0 0.0 0.00 0.00 0.00 90 1020.8
20210918175012 54 58 0.0 0.0 0.00 0.00 0.00 90 1020.8
20210918174012 54 61 0.0 0.0 0.00 0.00 0.00 90 1020.8
20210918173013 55 13 0.0 0.0 0.00 0.00 0.00 90 1020.7
20210918171012 55 55 0.0 0.0 0.00 0.00 0.00 90 1020.5
20210918170012 55 24 0.0 0.0 0.00 0.00 0.00 90 1020.4
20210918165012 55 48 0.0 0.0 0.00 0.00 0.00 90 1020.3
20210918164012 56 44 0.0 0.0 0.00 0.00 0.00 90 1020.3
20210918163013 56 63 0.0 0.0 0.00 0.00 0.00 90 1020.3
20210918160013 56 32 0.0 0.0 0.00 0.00 0.00 90 1020.1
20210918155012 57 54 0.0 0.0 0.00 0.00 0.00 90 1020.0
20210918154012 57 30 0.0 0.0 0.00 0.00 0.00 90 1019.9
20210918153013 57 52 0.0 0.0 0.00 0.00 0.00 90 1019.9
20210918144012 58 35 0.0 0.0 0.00 0.01 0.00 90 1019.8
20210918143013 58 25 0.0 0.0 0.00 0.01 0.00 90 1019.8
20210918142012 58 32 0.0 0.0 0.00 0.01 0.00 90 1019.8
20210918141012 59 27 0.0 0.0 0.00 0.04 0.00 90 1019.8
20210918135012 59 32 0.0 0.0 0.00 0.07 0.00 90 1019.8
20210918134012 59 28 0.0 0.0 0.00 0.09 0.00 90 1019.8
20210918133013 59 35 0.0 0.0 0.00 0.09 0.00 90 1019.8
20210918132012 59 21 0.0 0.0 0.00 0.09 0.00 90 1019.8
20210918131012 60 33 0.0 0.0 0.00 0.09 0.00 90 1019.8
20210918130013 59 40 0.0 0.0 0.00 0.09 0.00 90 1019.8
20210918125013 59 41 0.0 0.0 0.00 0.09 0.00 90 1019.9
20210918124012 60 36 0.0 0.0 0.00 0.09 0.00 90 1019.8
20210918123013 60 36 0.0 0.0 0.00 0.09 0.00 90 1019.8
20210918122012 60 34 0.0 0.0 0.00 0.09 0.00 90 1019.8
20210918120012 60 79 0.0 0.0 0.00 0.09 0.00 90 1019.8
20210918115012 60 36 0.0 0.0 0.00 0.09 0.00 90 1019.7
20210918112012 60 86 0.0 0.0 0.00 0.09 0.00 90 1019.6
20210918111013 60 41 0.0 0.0 0.00 0.09 0.00 90 1019.5
20210918110013 61 40 0.0 0.0 0.00 0.09 0.00 90 1019.4
20210918105012 61 85 0.0 0.0 0.00 0.09 0.00 90 1019.4
20210918104012 61 71 0.0 0.0 0.00 0.09 0.00 90 1019.4
20210918103014 61 60 0.0 0.0 0.00 0.09 0.00 90 1019.4
20210918102013 62 35 0.0 0.0 0.00 0.09 0.00 90 1019.4
20210918101012 62 44 0.0 0.0 0.00 0.09 0.00 90 1019.3
20210918100013 62 26 0.0 0.0 0.00 0.09 0.00 90 1019.2
20210918095013 62 35 0.0 0.0 0.00 0.09 0.00 90 1019.2
20210918094013 61 85 0.0 0.0 0.00 0.09 0.00 90 1019.2
20210918093014 61 105 0.0 0.0 0.00 0.09 0.00 90 1019.2
20210918091012 59 17 0.0 0.0 0.00 0.09 0.00 90 1018.9
20210918090012 59 45 0.0 0.0 0.00 0.09 0.00 90 1018.9
20210918084013 59 81 0.0 0.0 0.00 0.09 0.00 90 1018.7
20210918083013 59 4 0.0 0.0 0.00 0.09 0.00 90 1018.7
20210918075013 57 37 0.0 0.0 0.00 0.09 0.00 90 1018.5
20210918074013 57 17 0.0 0.0 0.00 0.09 0.00 90 1018.3
20210918073013 57 26 0.0 0.0 0.00 0.09 0.00 90 1018.2
20210918072013 57 38 0.0 0.0 0.00 0.09 0.00 90 1018.2
20210918071013 57 20 0.0 0.0 0.00 0.09 0.00 90 1018.2
20210918065013 56 69 0.0 0.0 0.00 0.09 0.00 90 1017.9
20210918062013 56 22 0.0 0.0 0.00 0.09 0.00 90 1017.8
20210918055013 55 35 0.0 0.0 0.00 0.09 0.00 90 1017.6
20210918053013 55 60 0.0 0.0 0.00 0.09 0.00 90 1017.5
20210918051013 55 38 0.0 0.0 0.00 0.09 0.00 90 1017.2
20210918045012 55 34 0.0 0.0 0.00 0.09 0.00 85 1017.2
20210918044012 55 61 0.0 0.0 0.00 0.09 0.00 90 1017.1
20210918043014 56 35 0.0 0.0 0.00 0.09 0.00 90 1017.0
20210918042013 56 32 0.0 0.0 0.00 0.09 0.00 90 1016.8